sat.trackr.live / text

‹ back to catalog

STARLINK-36763

NORAD 67906 · 2026-036C

PAYLOAD ACTIVE UNKNOWN

§ Identity

Operator
Country
US
Launch date
2026-02-22
Launch site
AFETR
Launch vehicle
Mass (kg)
RCS (m²)

Purposes: comms

External: N2YO · Heavens-Above · Gunter

§ Orbital elements

Epoch: 2026-05-25T02:17:15.052704Z

Period
94.27 min
Inclination
42.9996°
Eccentricity
0.0003054
Mean motion
15.27589237 rev/d
Perigee alt
480.9 km
Apogee alt
485.1 km
Semi-major
6,861.2 km
B*
5.5543e-4
RAAN
174.0911°
Arg perigee
281.5026°
Mean anomaly
78.5483°
Rev number
1,540

§ Raw data

STARLINK-367631 67906U 26036C   26145.09531311  .00015059  00000+0  55543-3 0  99902 67906  42.9996 174.0911 0003054 281.5026  78.5483 15.27589237 15402

JSON: /api/v1/satellites/67906 · /tle

For live sub-satellite position, see the globe view (requires WebGL).

§ Visibility from observer

Set your observer location to see the next 7 days of passes ≥ 10°. The values pass through the URL so the page stays shareable.

No JS? Fill the form by hand. The geolocation button needs JavaScript.